• In Hungary
  • List of Countries
  • For 7 days
  • Water Temperature
  • Satellite Maps
  • Weather Map
  • News
  • Weather Widgets
  • user-avatar
    Login

    Hourly Weather Megri

    Today, 23 July, Monday

    Time Temperature Precipitation Wind Pressure Humidity
    00:00 +18°C° 0 mm 3 mps 620 mmHg 67%
    01:00 +18°C° 0 mm 3 mps 620 mmHg 68%
    02:00 +17°C° 0 mm 3 mps 619 mmHg 69%
    03:00 +17°C° 0 mm 2 mps 619 mmHg 67%
    04:00 +17°C° 0 mm 2 mps 619 mmHg 65%
    05:00 +17°C° 0 mm 3 mps 620 mmHg 63%
    06:00 +18°C° 0 mm 3 mps 620 mmHg 62%
    07:00 +19°C° 0 mm 3 mps 620 mmHg 55%
    08:00 +21°C° 0 mm 3 mps 621 mmHg 49%
    09:00 +24°C° 0 mm 3 mps 621 mmHg 44%
    10:00 +25°C° 0 mm 3 mps 621 mmHg 41%
    11:00 +26°C° 0 mm 3 mps 621 mmHg 38%
    12:00 +28°C° 0 mm 3 mps 622 mmHg 34%
    13:00 +28°C° 0 mm 3 mps 621 mmHg 33%
    14:00 +28°C° 0 mm 3 mps 621 mmHg 32%
    15:00 +28°C° 0 mm 3 mps 621 mmHg 33%
    16:00 +28°C° 0.1 mm 3 mps 621 mmHg 34%
    17:00 +27°C° 0.1 mm 4 mps 621 mmHg 36%
    18:00 +27°C° 0.1 mm 4 mps 621 mmHg 37%
    19:00 +25°C° 0.1 mm 3 mps 621 mmHg 43%
    20:00 +24°C° 0.1 mm 3 mps 620 mmHg 49%
    21:00 +21°C° 0.1 mm 3 mps 620 mmHg 55%
    22:00 +20°C° 0 mm 3 mps 620 mmHg 58%
    23:00 +20°C° 0 mm 2 mps 620 mmHg 60%

    Tomorrow, 24 July, Tuesday

    Time Temperature Precipitation Wind Pressure Humidity
    00:00 +19°C° 0 mm 2 mps 620 mmHg 62%
    01:00 +19°C° 0 mm 2 mps 620 mmHg 64%
    02:00 +19°C° 0 mm 2 mps 620 mmHg 65%
    03:00 +18°C° 0 mm 2 mps 620 mmHg 67%
    04:00 +19°C° 0 mm 2 mps 620 mmHg 65%
    05:00 +19°C° 0 mm 2 mps 620 mmHg 64%
    06:00 +19°C° 0 mm 2 mps 621 mmHg 62%
    07:00 +21°C° 0 mm 2 mps 621 mmHg 54%
    08:00 +24°C° 0 mm 2 mps 622 mmHg 46%
    09:00 +26°C° 0 mm 2 mps 623 mmHg 38%
    10:00 +27°C° 0 mm 1 mps 623 mmHg 34%
    11:00 +29°C° 0 mm 1 mps 623 mmHg 29%
    12:00 +31°C° 0 mm 1 mps 623 mmHg 25%
    13:00 +31°C° 0 mm 1 mps 623 mmHg 23%
    14:00 +32°C° 0 mm 1 mps 623 mmHg 22%
    15:00 +34°C° 0 mm 2 mps 623 mmHg 20%
    16:00 +32°C° 0 mm 2 mps 623 mmHg 22%
    17:00 +31°C° 0 mm 2 mps 623 mmHg 24%
    18:00 +31°C° 0 mm 2 mps 623 mmHg 26%
    19:00 +29°C° 0 mm 3 mps 623 mmHg 31%
    20:00 +27°C° 0 mm 3 mps 622 mmHg 37%
    21:00 +25°C° 0 mm 3 mps 622 mmHg 43%
    22:00 +25°C° 0 mm 3 mps 622 mmHg 45%
    23:00 +24°C° 0 mm 3 mps 622 mmHg 48%

    Day after tomorrow, 25 July, Wednesday

    Time Temperature Precipitation Wind Pressure Humidity
    00:00 +22°C° 0 mm 3 mps 622 mmHg 50%
    01:00 +23°C° 0 mm 2 mps 622 mmHg 51%
    02:00 +23°C° 0 mm 2 mps 622 mmHg 52%
    03:00 +21°C° 0 mm 2 mps 622 mmHg 53%
    04:00 +23°C° 0 mm 2 mps 622 mmHg 51%
    05:00 +23°C° 0 mm 2 mps 622 mmHg 50%
    06:00 +23°C° 0 mm 2 mps 622 mmHg 49%
    07:00 +26°C° 0 mm 2 mps 623 mmHg 43%
    08:00 +28°C° 0 mm 2 mps 624 mmHg 36%
    09:00 +30°C° 0 mm 2 mps 624 mmHg 30%
    10:00 +31°C° 0 mm 2 mps 624 mmHg 27%
    11:00 +34°C° 0 mm 2 mps 625 mmHg 24%
    12:00 +35°C° 0 mm 2 mps 625 mmHg 21%
    13:00 +36°C° 0 mm 2 mps 625 mmHg 20%
    14:00 +36°C° 0 mm 2 mps 624 mmHg 18%
    15:00 +37°C° 0 mm 2 mps 624 mmHg 17%
    16:00 +36°C° 0 mm 2 mps 624 mmHg 19%
    17:00 +35°C° 0 mm 3 mps 623 mmHg 21%
    18:00 +34°C° 0 mm 3 mps 623 mmHg 24%
    19:00 +33°C° 0 mm 3 mps 623 mmHg 29%
    20:00 +30°C° 0 mm 3 mps 623 mmHg 34%
    21:00 +28°C° 0 mm 3 mps 623 mmHg 39%
    22:00 +28°C° 0 mm 3 mps 622 mmHg 42%
    23:00 +27°C° 0 mm 3 mps 622 mmHg 44%

    26 July, Thursday

    Time Temperature Precipitation Wind Pressure Humidity
    00:00 +27°C° 0 mm 3 mps 622 mmHg 47%
    01:00 +26°C° 0 mm 3 mps 622 mmHg 49%
    02:00 +25°C° 0 mm 2 mps 622 mmHg 50%
    03:00 +25°C° 0 mm 2 mps 622 mmHg 52%
    04:00 +25°C° 0 mm 2 mps 622 mmHg 51%
    05:00 +25°C° 0 mm 2 mps 622 mmHg 50%
    06:00 +26°C° 0 mm 2 mps 623 mmHg 49%
    07:00 +28°C° 0 mm 2 mps 623 mmHg 43%
    08:00 +30°C° 0 mm 3 mps 624 mmHg 36%
    09:00 +33°C° 0 mm 3 mps 625 mmHg 29%
    10:00 +34°C° 0 mm 3 mps 625 mmHg 26%
    11:00 +35°C° 0 mm 3 mps 625 mmHg 23%
    12:00 +37°C° 0 mm 3 mps 625 mmHg 19%
    13:00 +37°C° 0 mm 3 mps 625 mmHg 19%
    14:00 +37°C° 0 mm 3 mps 625 mmHg 18%
    15:00 +38°C° 0 mm 3 mps 625 mmHg 18%
    16:00 +37°C° 0 mm 4 mps 624 mmHg 21%
    17:00 +36°C° 0 mm 4 mps 624 mmHg 24%
    18:00 +35°C° 0 mm 5 mps 624 mmHg 27%
    19:00 +33°C° 0 mm 4 mps 623 mmHg 34%
    20:00 +30°C° 0 mm 4 mps 623 mmHg 41%
    21:00 +28°C° 0 mm 4 mps 623 mmHg 48%
    22:00 +27°C° 0 mm 4 mps 623 mmHg 50%
    23:00 +27°C° 0 mm 4 mps 622 mmHg 53%

    27 July, Friday

    Time Temperature Precipitation Wind Pressure Humidity
    00:00 +26°C° 0 mm 4 mps 622 mmHg 55%
    01:00 +25°C° 0 mm 3 mps 622 mmHg 56%
    02:00 +25°C° 0 mm 3 mps 622 mmHg 57%
    03:00 +25°C° 0 mm 3 mps 622 mmHg 58%
    04:00 +25°C° 0 mm 3 mps 622 mmHg 57%
    05:00 +25°C° 0 mm 3 mps 622 mmHg 56%
    06:00 +25°C° 0 mm 3 mps 623 mmHg 55%
    07:00 +26°C° 0 mm 3 mps 623 mmHg 47%
    08:00 +28°C° 0 mm 4 mps 624 mmHg 39%
    09:00 +30°C° 0 mm 4 mps 625 mmHg 31%
    10:00 +33°C° 0 mm 4 mps 625 mmHg 28%
    11:00 +34°C° 0 mm 4 mps 625 mmHg 25%
    12:00 +35°C° 0 mm 4 mps 625 mmHg 22%
    13:00 +36°C° 0 mm 5 mps 625 mmHg 22%
    14:00 +36°C° 0 mm 5 mps 624 mmHg 21%
    15:00 +37°C° 0 mm 5 mps 624 mmHg 21%
    16:00 +35°C° 0 mm 5 mps 624 mmHg 25%
    17:00 +34°C° 0 mm 6 mps 623 mmHg 30%
    18:00 +33°C° 0 mm 6 mps 623 mmHg 34%
    19:00 +30°C° 0 mm 6 mps 623 mmHg 37%
    20:00 +28°C° 0 mm 5 mps 622 mmHg 39%
    21:00 +26°C° 0 mm 5 mps 622 mmHg 42%
    22:00 +25°C° 0 mm 4 mps 622 mmHg 40%
    23:00 +25°C° 0 mm 4 mps 622 mmHg 39%

    28 July, Saturday

    Time Temperature Precipitation Wind Pressure Humidity
    00:00 +24°C° 0 mm 3 mps 622 mmHg 38%
    01:00 +24°C° 0 mm 3 mps 622 mmHg 37%
    02:00 +24°C° 0 mm 3 mps 622 mmHg 37%
    03:00 +22°C° 0 mm 3 mps 621 mmHg 36%
    04:00 +22°C° 0 mm 3 mps 622 mmHg 36%
    05:00 +22°C° 0 mm 3 mps 622 mmHg 35%
    06:00 +22°C° 0 mm 3 mps 622 mmHg 35%
    07:00 +26°C° 0 mm 3 mps 623 mmHg 30%
    08:00 +28°C° 0 mm 3 mps 623 mmHg 25%
    09:00 +30°C° 0 mm 4 mps 624 mmHg 21%
    10:00 +32°C° 0 mm 4 mps 624 mmHg 19%
    11:00 +34°C° 0 mm 4 mps 624 mmHg 17%
    12:00 +35°C° 0 mm 4 mps 624 mmHg 15%
    13:00 +36°C° 0 mm 4 mps 624 mmHg 15%
    14:00 +36°C° 0 mm 5 mps 624 mmHg 14%
    15:00 +37°C° 0 mm 5 mps 624 mmHg 14%
    16:00 +36°C° 0 mm 5 mps 623 mmHg 16%
    17:00 +34°C° 0 mm 5 mps 623 mmHg 18%
    18:00 +33°C° 0 mm 5 mps 623 mmHg 20%
    19:00 +30°C° 0 mm 5 mps 622 mmHg 23%
    20:00 +28°C° 0 mm 4 mps 622 mmHg 26%
    21:00 +26°C° 0 mm 4 mps 622 mmHg 28%
    22:00 +26°C° 0 mm 4 mps 622 mmHg 28%
    23:00 +25°C° 0 mm 3 mps 621 mmHg 28%
    Show more